Location: Austin
(30.3000°N, 97.7500°W)
Time: 10:23:26
(UTC-05:00)

Meteor 1-27 Rocket - Pass Details

Date: 03 April 2024
Orbit: 829 x 909 km, 81.3° (Epoch: 21 April)

Event Time Altitude Azimuth Distance (km) Brightness Sun altitude
Exits shadow 05:49:45 - 192° (SSW) 2,680 6.0 -19.2°
Reaches altitude 10° 05:50:00 10° 192° (SSW) 2,581 5.9 -19.2°
Maximum altitude 05:55:54 75° 278° (W) 936 3.7 -17.9°
Drops below altitude 10° 06:01:45 10° 3° (N) 2,563 6.5 -16.7°
Sets 06:04:12 0° 6° (N) 3,495 7.2 -16.2°
